Weather in Bannoye

Russia / Orenburg Oblast     51°20′50″N   58°43′59″E
temp.,
°C
wind,
m/s
gust,
m/s
humid.,
%
clouds,
%
prec.,
mm/h
press.,
hPa
HPBL,
m
19 january, wed
wed1923:00−18s229941 0.0 102714
02:00−20ssw11100100 0.0 102710
05:00−21w1110087 0.0 10289
08:00−21s0010098 0.0 10299
11:00−17s11100100 0.1 102934
14:00−11s1193100 0.0 102886
17:00−15se2297100 0.0 102910
20:00−18se1199100 0.0 102910
20 january, thu
thu2023:00−17ssw1198100 0.0 103012
02:00−21se1110098 0.0 103010
05:00−20ese11100100 0.0 103012
08:00−21e22100100 0.0 103014
11:00−16se2294100 0.0 103092
14:00−13sse2389100 0.0 1029189
17:00−13e2293100 0.0 102736
20:00−15ene119797 0.0 102710
21 january, fri
fri2123:00−21ene1110081 0.0 10289
02:00−24nne11100100 0.0 102810
05:00−23n2210085 0.0 102716
08:00−25nne2210099 0.0 102813
11:00−20nne2398100 0.0 102782
14:00−15nne3489100 0.0 1026142
17:00−15n2392100 0.0 102655
20:00−16nne3593100 0.0 102780
22 january, sat
sat2223:00−16nne3592100 0.0 102778
02:00−15nne2490100 0.0 102784
05:00−15nne3591100 0.0 102797
08:00−14nne3591100 0.0 1027115
11:00−13nne3589100 0.0 1028163
14:00−11nne3589100 0.0 1028231
17:00−11nne3693100 0.0 1028175
20:00−13n3595100 0.0 102973
23 january, sun
sun2323:00−14n2396100 0.0 103034
02:00−17n22986 0.0 103125
05:00−17nnw33989 0.0 103232
08:00−19n22996 0.0 103319
11:00−14nne24945 0.0 1034109
14:00−11n349013 0.0 1034176
17:00−13n22945 0.0 103530
20:00−18n22985 0.0 103721